Regional Weather Roundup
Issued by NWS Kansas City/Pleasant Hill, MO

Home | Current Version | Previous Version | Text Only | Print | Product List | Glossary On
Versions: 1 2 3 4 5 6 7 8 9 10 11 12 13 14 15 16 17 18 19 20 21 22 23 24 25 26 27 28 29 30 31 32 33 34 35 36 37 38 39 40 41 42 43 44 45 46 47 48 49 50
000
ASUS43 KEAX 050310
RWREAX

WEATHER ROUNDUP FOR EASTERN KANSAS AND NORTHWEST MISSOURI
NATIONAL WEATHER SERVICE KANSAS CITY/PLEASANT HILL MO
1000 PM CDT WED MAY 04 2016

KSZ040-057-103>105-MOZ028-029-037-043-050400-
...KANSAS CITY METROPOLITAN AREA...

CITY           SKY/WX    TMP DP  RH WIND       PRES   REMARKS
K.C. INTL      CLEAR     57  36  45 N7        30.00R
K.C. DOWNTOWN  CLEAR     61  37  41 CALM      29.99R
LEES SUMMIT    CLEAR     59  37  44 N3        30.00R
OLATHE - IXD   CLEAR     55  39  54 NW7       30.01R
OLATHE - OJC   CLEAR     58  38  47 NW5       30.00R
LAWRENCE       CLEAR     49  43  80 N5        30.01R

$$

MOZ001>008-011>017-020>025-030>033-038>040-044>046-053-054-050400-
...NORTHERN AND CENTRAL MISSOURI...

CITY           SKY/WX    TMP DP  RH WIND       PRES   REMARKS
ST. JOSEPH     CLEAR     55  39  54 CALM      30.00R
MOSBY            N/A     54  43  66 CALM      29.99R
WARRENSBURG    CLEAR     55  37  50 NW3       29.98R
WHITEMAN AFB   CLEAR     56  39  52 N6        29.97R
CLINTON        CLEAR     54  39  58 CALM      29.99R
SEDALIA        CLEAR     56  39  53 NW6       29.98R
WARSAW         NOT AVBL
CHILLICOTHE      N/A     50  44  80 CALM      29.98R
KIRKSVILLE     CLEAR     52  36  54 W7        29.95R

$$

MOZ041-047>049-056>058-063>065-088>090-097-050400-
...EASTERN AND SOUTHERN MISSOURI...

CITY           SKY/WX    TMP DP  RH WIND       PRES   REMARKS
ST. LOUIS INTL PTCLDY    56  37  49 W6        29.90S
SPIRIT OF STL  PTCLDY    49  42  77 W5        29.90S
COLUMBIA       CLEAR     55  36  48 NW6       29.95R
JEFFERSON CITY PTCLDY    56  37  49 NW3       29.95R
ROLLA          CLEAR     53  36  52 NW5       29.93R
OSAGE BEACH    CLEAR     57  34  41 N3        29.96R
SPRINGFIELD    CLEAR     58  37  45 NW5       29.97R
JOPLIN         CLEAR     58  42  55 CALM      30.00R
WEST PLAINS    CLEAR     56  34  43 NW5       29.95R

$$

IAZ060-094-KSZ022-034>040-054-083-096-NEZ052-066-093-050400-
...KANSAS...SOUTHEAST NEBRASKA AND IOWA...

CITY           SKY/WX    TMP DP  RH WIND       PRES   REMARKS
TOPEKA         CLEAR     57  42  57 CALM      30.01R
MANHATTAN      CLEAR     53  40  61 CALM      30.02R
EMPORIA        CLEAR     58  40  51 NW3       30.02R
CHANUTE        CLEAR     56  40  55 CALM      30.01R
WICHITA        CLEAR     59  37  44 NW5       30.04R
OMAHA          CLEAR     58  44  60 CALM      30.00R
LINCOLN        CLEAR     57  38  48 MISG      30.04R
FALLS CITY     CLEAR     57  38  48 NW3       30.00R
LAMONI         CLEAR     52  38  58 NW7       29.97R
DES MOINES     CLEAR     58  34  40 NW6       29.96R

$$




USA.gov is the U.S. government's official web portal to all federal, state and local government web resources and services.